Starlink 3099

operational
NORAD ID: 49446 Int'l Des: 2021-104 Owner: SPXS Country: US Constellation: starlink
LEOCIRCULAR

About Starlink 3099

Description loading...

Live Position

Loading 3D Globe...

Upcoming Passes

Altitude History

Altitude vs Time

uPlot chart will show altitude changes over time

Two-Line Element Set

1 49446U 21104AQ 25353.92393832 .00001449 00000-0 10912-3 0 9996
2 49446 53.2161 207.2028 0001487 88.9418 271.1744 15.08841475226870
Epoch: Dec 19, 2025 • Age: 10 hours

Current Status

Altitude 541.6 km
Velocity 7.60 km/s
Sub-Earth Point 35.29°N, 139.82°E
Launch Date Nov 13, 2021
Age 4 years
Type internet

Technical Details

Classification Payload
Mass 290.00 kg
Dry Mass 270.00 kg
Total Mass 290.00 kg
Length 0.20 m
Diameter 2.80 m
Span 9.00 m
Shape Box + pan
Manufacturer SPXS
Bus Type Starlink
Phase Status In Orbit
Owner/State SPXS/US

Large Constellations

Loading constellations...